Newberry, MI

12:47 PM EDT on August 18, 2017 (GMT -0400)
Luce County

Weather History for KERY - March, 2013

Change the Weather History Date:

Thursday, March 21, 2013

  Actual Average Record
Temperature  
Mean Temperature 24 °F -  
Max Temperature 26 °F 36 °F 78 °F (2012)
Min Temperature 21 °F 19 °F -4 °F (1986)
Degree Days  
Heating Degree Days 42    
Moisture  
Dew Point 19 °F    
Average Humidity 84    
Maximum Humidity 93    
Minimum Humidity 74    
Precipitation  
Precipitation 0.00 in - - ()
Sea Level Pressure  
Sea Level Pressure 29.87 in    
Wind  
Wind Speed 9 mph (NW)    
Max Wind Speed 17 mph    
Max Gust Speed 25 mph    
Visibility 7 miles    
Events Snow    
Averages and records for this station are not official NWS values.
T = Trace of Precipitation, MM = Missing Value Source: NWS Daily Summary

Daily Weather History Graph

Daily Weather History Graph

Search for Another Location

Airport or City:

Trip Planner

Search our weather history database for the weather conditions in past years. The results will help you decide how hot, cold, wet, or windy it might be!

Date:

Astronomy

Mar. 21, 2013 Rise Set
Actual Time 7:42 AM EDT 7:56 PM EDT
Civil Twilight 7:12 AM EDT 8:26 PM EDT
Nautical Twilight 6:37 AM EDT 9:01 PM EDT
Astronomical Twilight 6:00 AM EDT 9:38 PM EDT
Moon 2:09 PM EDT (3/21) 4:20 AM EDT (3/21)
Length of Visible Light 13h 13m
Length of Day
12h 13m
Waxing Gibbous, 68% of the Moon is Illuminated
Mar 21
Waxing Gibbous
Mar 27
Full
Apr 3
Last Quarter
Apr 10
New
Apr 18
First Quarter

Hourly Weather History & Observations

Time (EDT) Temp. Windchill Dew Point Humidity Pressure Visibility Wind Dir Wind Speed Gust Speed Precip Events Conditions
12:15 AM 26.6 °F 18.2 °F 24.8 °F 93% 29.81 in 2.0 mi NNW 8.1 mph - N/A Snow Light Snow
12:34 AM 26.6 °F 20.0 °F 24.8 °F 93% 29.81 in 4.0 mi NNW 5.8 mph - N/A Snow Light Snow
12:55 AM 24.8 °F 13.4 °F 23.0 °F 93% 29.81 in 10.0 mi North 12.7 mph - N/A Snow Light Snow
1:35 AM 24.8 °F 16.1 °F 21.2 °F 86% 29.81 in 10.0 mi North 8.1 mph - N/A   Overcast
2:14 AM 24.8 °F 16.1 °F 21.2 °F 86% 29.82 in 10.0 mi NNW 8.1 mph - N/A   Overcast
2:34 AM 24.8 °F 16.9 °F 21.2 °F 86% 29.82 in 10.0 mi NNW 6.9 mph - N/A   Overcast
2:54 AM 24.8 °F 14.6 °F 21.2 °F 86% 29.82 in 10.0 mi NNW 10.4 mph - N/A Snow Light Snow
3:15 AM 24.8 °F 14.6 °F 21.2 °F 86% 29.82 in 10.0 mi NNW 10.4 mph 17.3 mph N/A   Overcast
3:34 AM 24.8 °F 16.9 °F 21.2 °F 86% 29.82 in 10.0 mi NNW 6.9 mph - N/A   Overcast
3:55 AM 24.8 °F 16.9 °F 21.2 °F 86% 29.82 in 7.0 mi NNW 6.9 mph - N/A Snow Light Snow
4:14 AM 24.8 °F 16.1 °F 21.2 °F 86% 29.82 in 7.0 mi NW 8.1 mph - N/A Snow Light Snow
4:34 AM 24.8 °F 17.9 °F 21.2 °F 86% 29.82 in 5.0 mi NW 5.8 mph - N/A Snow Light Snow
4:55 AM 24.8 °F 16.9 °F 21.2 °F 86% 29.82 in 5.0 mi NW 6.9 mph - N/A Snow Light Snow
5:14 AM 24.8 °F 16.1 °F 21.2 °F 86% 29.82 in 10.0 mi NNW 8.1 mph - N/A Snow Light Snow
5:35 AM 24.8 °F 16.9 °F 21.2 °F 86% 29.82 in 7.0 mi NNW 6.9 mph - N/A Snow Light Snow
5:55 AM 23.0 °F 14.7 °F 21.2 °F 93% 29.82 in 10.0 mi NNW 6.9 mph - N/A Snow Light Snow
6:14 AM 23.0 °F 15.8 °F 21.2 °F 93% 29.82 in 4.0 mi NNW 5.8 mph - N/A Snow Light Snow
6:35 AM 23.0 °F 13.9 °F 19.4 °F 86% 29.83 in 7.0 mi NW 8.1 mph - N/A Snow Light Snow
6:55 AM 21.2 °F 12.6 °F 19.4 °F 93% 29.83 in 7.0 mi NNW 6.9 mph - N/A Snow Light Snow
7:14 AM 21.2 °F 11.7 °F 19.4 °F 93% 29.84 in 10.0 mi NNW 8.1 mph - N/A Snow Light Snow
7:35 AM 21.2 °F 12.6 °F 19.4 °F 93% 29.84 in 7.0 mi NNW 6.9 mph - N/A Snow Light Snow
7:54 AM 21.2 °F 14.9 °F 19.4 °F 93% 29.84 in 3.0 mi NNW 4.6 mph - N/A Snow Light Snow
8:14 AM 21.2 °F 13.6 °F 19.4 °F 93% 29.84 in 1.5 mi NW 5.8 mph - N/A Snow Light Snow
8:54 AM 21.2 °F 12.6 °F 19.4 °F 93% 29.85 in 2.0 mi NNW 6.9 mph - N/A Snow Light Snow
9:14 AM 21.2 °F 11.7 °F 19.4 °F 93% 29.85 in 2.5 mi NNW 8.1 mph - N/A Snow Light Snow
9:35 AM 21.2 °F 10.1 °F 19.4 °F 93% 29.85 in 1.5 mi NNW 10.4 mph 16.1 mph N/A Snow Light Snow
9:54 AM 21.2 °F 11.7 °F 19.4 °F 93% 29.85 in 2.0 mi NNW 8.1 mph - N/A Snow Light Snow
10:15 AM 21.2 °F 13.6 °F 19.4 °F 93% 29.86 in 2.0 mi NNW 5.8 mph - N/A Snow Light Snow
10:35 AM 23.0 °F 13.1 °F 17.6 °F 80% 29.86 in 2.5 mi NW 9.2 mph - N/A Snow Light Snow
10:54 AM 21.2 °F 11.7 °F 19.4 °F 93% 29.86 in 1.5 mi NW 8.1 mph - N/A Snow Light Snow
11:15 AM 21.2 °F 10.1 °F 19.4 °F 93% 29.86 in 1.5 mi NW 10.4 mph - N/A Snow Light Snow
11:35 AM 23.0 °F 13.1 °F 17.6 °F 80% 29.86 in 5.0 mi NNW 9.2 mph 19.6 mph N/A Snow Light Snow
11:54 AM 23.0 °F 11.7 °F 17.6 °F 80% 29.86 in 10.0 mi NW 11.5 mph 21.9 mph N/A   Overcast
12:15 PM 23.0 °F 11.7 °F 17.6 °F 80% 29.87 in 4.0 mi NW 11.5 mph 19.6 mph N/A Snow Light Snow
12:34 PM 23.0 °F 13.1 °F 17.6 °F 80% 29.87 in 7.0 mi NW 9.2 mph 17.3 mph N/A Snow Light Snow
12:54 PM 23.0 °F 11.1 °F 15.8 °F 74% 29.87 in 10.0 mi NW 12.7 mph 19.6 mph N/A   Overcast
1:15 PM 23.0 °F 11.7 °F 17.6 °F 80% 29.87 in 5.0 mi NW 11.5 mph 18.4 mph N/A Snow Light Snow
1:34 PM 23.0 °F 10.6 °F 17.6 °F 80% 29.87 in 7.0 mi NW 13.8 mph 20.7 mph N/A Snow Light Snow
1:54 PM 23.0 °F 11.1 °F 15.8 °F 74% 29.88 in 10.0 mi NW 12.7 mph 20.7 mph N/A   Overcast
2:15 PM 23.0 °F 9.2 °F 17.6 °F 80% 29.88 in 7.0 mi WNW 17.3 mph 21.9 mph N/A Snow Light Snow
2:34 PM 23.0 °F 13.1 °F 15.8 °F 74% 29.88 in 10.0 mi NNW 9.2 mph 18.4 mph N/A   Overcast
2:55 PM 24.8 °F 12.4 °F 17.6 °F 74% 29.87 in 10.0 mi NNW 15.0 mph 21.9 mph N/A Snow Light Snow
3:15 PM 24.8 °F 13.4 °F 17.6 °F 74% 29.88 in 10.0 mi NW 12.7 mph 18.4 mph N/A   Overcast
3:34 PM 24.8 °F 13.4 °F 17.6 °F 74% 29.87 in 10.0 mi NNW 12.7 mph 18.4 mph N/A   Overcast
3:55 PM 24.8 °F 11.5 °F 17.6 °F 74% 29.88 in 10.0 mi NW 17.3 mph 21.9 mph N/A   Overcast
4:14 PM 24.8 °F 11.5 °F 17.6 °F 74% 29.88 in 10.0 mi NW 17.3 mph 25.3 mph N/A   Overcast
4:35 PM 24.8 °F 13.4 °F 17.6 °F 74% 29.88 in 7.0 mi NW 12.7 mph 25.3 mph N/A Snow Light Snow
4:54 PM 24.8 °F 12.4 °F 17.6 °F 74% 29.89 in 5.0 mi WNW 15.0 mph 20.7 mph N/A Snow Light Snow
5:15 PM 24.8 °F 14.0 °F 19.4 °F 80% 29.89 in 2.5 mi NW 11.5 mph 20.7 mph N/A Snow Light Snow
5:35 PM 24.8 °F 13.4 °F 17.6 °F 74% 29.89 in 4.0 mi WNW 12.7 mph 20.7 mph N/A Snow Light Snow
5:54 PM 24.8 °F 14.0 °F 19.4 °F 80% 29.89 in 7.0 mi NW 11.5 mph 16.1 mph N/A Snow Light Snow
6:15 PM 24.8 °F 15.3 °F 19.4 °F 80% 29.89 in 7.0 mi NW 9.2 mph 19.6 mph N/A Snow Light Snow
6:34 PM 24.8 °F 15.3 °F 19.4 °F 80% 29.90 in 10.0 mi WNW 9.2 mph 21.9 mph N/A Snow Light Snow
6:54 PM 24.8 °F 13.4 °F 19.4 °F 80% 29.90 in 7.0 mi NW 12.7 mph 20.7 mph N/A Snow Light Snow
7:15 PM 23.0 °F 11.7 °F 19.4 °F 86% 29.91 in 5.0 mi NW 11.5 mph 17.3 mph N/A Snow Light Snow
7:34 PM 23.0 °F 12.4 °F 17.6 °F 80% 29.91 in 7.0 mi NW 10.4 mph 17.3 mph N/A Snow Light Snow
7:54 PM 23.0 °F 11.1 °F 17.6 °F 80% 29.91 in 7.0 mi NW 12.7 mph 17.3 mph N/A Snow Light Snow
8:15 PM 23.0 °F 13.9 °F 17.6 °F 80% 29.91 in 7.0 mi WNW 8.1 mph - N/A Snow Light Snow
8:34 PM 23.0 °F 11.7 °F 17.6 °F 80% 29.92 in 10.0 mi WNW 11.5 mph - N/A Snow Light Snow
8:55 PM 23.0 °F 12.4 °F 17.6 °F 80% 29.92 in 10.0 mi WNW 10.4 mph - N/A Snow Light Snow
9:15 PM 23.0 °F 11.7 °F 17.6 °F 80% 29.92 in 10.0 mi WNW 11.5 mph 18.4 mph N/A   Overcast
9:34 PM 21.2 °F 10.1 °F 17.6 °F 86% 29.92 in 10.0 mi WNW 10.4 mph - N/A   Overcast
9:55 PM 21.2 °F 11.7 °F 17.6 °F 86% 29.92 in 10.0 mi WNW 8.1 mph - N/A   Mostly Cloudy
10:14 PM 21.2 °F 10.9 °F 17.6 °F 86% 29.92 in 10.0 mi WNW 9.2 mph - N/A   Scattered Clouds
10:35 PM 21.2 °F 10.9 °F 17.6 °F 86% 29.92 in 10.0 mi WNW 9.2 mph - N/A   Mostly Cloudy
10:55 PM 21.2 °F 11.7 °F 17.6 °F 86% 29.91 in 10.0 mi West 8.1 mph - N/A   Overcast
11:14 PM 21.2 °F 10.9 °F 17.6 °F 86% 29.91 in 10.0 mi West 9.2 mph - N/A   Overcast
11:35 PM 21.2 °F 11.7 °F 17.6 °F 86% 29.91 in 10.0 mi West 8.1 mph - N/A   Overcast
11:54 PM 21.2 °F 12.6 °F 17.6 °F 86% 29.91 in 10.0 mi West 6.9 mph - N/A   Overcast